Location: Summit Observatory
(39.5293°N, 75.7290°W)
Time: 18:33:31
(UTC-04:00)

Amateur Radio Satellites - All Passes

Search period start: 01 April 2015 18:03
Search period end: 02 April 2015 18:03
Location: Summit Observatory, 39.5293°N, 75.7290°W

Satellite Date Start Highest point End Downlink Frequencies (MHz)
Time Altitude Azimuth
M-CUBED/EXP-1 PRIME 01 Apr 18:07:58 18:12:24 35° 101° (E) 18:16:42 437.505
MOZHAYETS 4 01 Apr 18:18:18 18:22:48 49° 287° (WNW) 18:27:15
AIST 2 01 Apr 18:20:31 18:22:57 15° 42° (NE) 18:25:30 435.215
BEESAT 2 01 Apr 18:25:10 18:29:03 38° 52° (NE) 18:32:54 435.950
AO-7 01 Apr 18:32:51 18:35:55 12° 275° (W) 18:38:14 29.400- 29.500
CUBESAT XI-V 01 Apr 18:38:54 18:42:15 20° 92° (E) 18:45:43 437.345
SO-50 01 Apr 18:54:13 18:58:47 62° 305° (NW) 19:03:34 436.795
GONETS M04 01 Apr 18:57:42 19:05:44 45° 89° (E) 19:13:55
BEESAT 3 01 Apr 18:57:53 19:02:00 80° 240° (WSW) 19:06:03 437.485
STRAND 1 01 Apr 19:12:57 19:17:02 24° 94° (E) 19:21:12 437.568
AUBIESAT-1 01 Apr 19:14:57 19:19:39 53° 292° (WNW) 19:24:10 437.475
BRITE-PL 01 Apr 19:18:47 19:20:03 11° 66° (ENE) 19:21:33 437.365/2234.400
CUTE-I 01 Apr 19:19:56 19:24:50 35° 263° (W) 19:29:42 437.470
Cubesat XI-IV 01 Apr 19:21:15 19:26:08 34° 264° (W) 19:30:57 437.490
PRISM 01 Apr 19:33:23 19:37:30 58° 101° (E) 19:41:34 437.425
M-CUBED/EXP-1 PRIME 01 Apr 19:43:03 19:47:06 26° 297° (WNW) 19:50:59 437.505
CUTE 1.7 + AOD 2 01 Apr 19:46:09 19:47:14 11° 65° (ENE) 19:48:34 437.475
GOMX 1 01 Apr 19:46:20 19:48:29 14° 67° (ENE) 19:50:47 467.674
AIST 2 01 Apr 19:57:49 20:02:02 65° 241° (WSW) 20:06:10 435.215
BEESAT 2 01 Apr 20:04:00 20:06:57 19° 248° (WSW) 20:09:45 435.950
RS-15 01 Apr 20:06:29 20:17:15 62° 309° (NW) 20:28:16 29.354- 29.394
SEEDS 01 Apr 20:08:23 20:10:59 17° 67° (ENE) 20:13:43 437.485
CUBESAT XI-V 01 Apr 20:15:36 20:19:52 37° 288° (WNW) 20:24:04 437.345
CUSAT 1 01 Apr 20:16:38 20:18:09 14° 94° (E) 20:19:42 437.405
HO-68 01 Apr 20:19:51 20:26:38 49° 68° (ENE) 20:33:32 435.675
COMPASS 1 01 Apr 20:24:47 20:27:50 20° 69° (ENE) 20:31:00 437.405
SO-50 01 Apr 20:39:06 20:40:25 11° 326° (NW) 20:41:34 436.795
Oscar 11 01 Apr 20:47:44 20:50:15 16° 67° (ENE) 20:52:56 145.826/435.025
DELFI C3 01 Apr 20:49:08 20:50:18 11° 65° (ENE) 20:51:42 145.870
STRAND 1 01 Apr 20:51:40 20:56:22 37° 290° (WNW) 21:00:59 437.568
DOVE 4 01 Apr 20:53:26 20:57:34 49° 74° (ENE) 21:01:37 437.250
BRITE-PL 01 Apr 20:53:38 20:58:15 66° 259° (W) 21:02:34 437.365/2234.400
GONETS M04 01 Apr 20:54:43 21:02:44 38° 288° (WNW) 21:10:41
CANX-2 01 Apr 21:05:03 21:09:17 85° 258° (WSW) 21:13:34 2200.000
FUNcube-1 01 Apr 21:06:41 21:08:08 12° 65° (ENE) 21:09:48 145.935
PRISM 01 Apr 21:10:54 21:12:32 12° 296° (WNW) 21:13:58 437.425
CUTE 1.7 + AOD 2 01 Apr 21:18:28 21:22:40 66° 259° (W) 21:26:56 437.475
UWE-3 01 Apr 21:18:56 21:21:59 21° 69° (ENE) 21:25:09 435.000/436.395/437.385
ZACube-1 01 Apr 21:19:43 21:22:21 17° 67° (ENE) 21:25:09 437.345
GOMX 1 01 Apr 21:22:03 21:26:21 49° 260° (W) 21:30:28 467.674
DANDE 01 Apr 21:27:19 21:30:08 46° 281° (W) 21:32:42 436.750
AAUSAT CUBESAT 2 01 Apr 21:28:51 21:33:01 86° 257° (WSW) 21:37:15 437.432
CUBEBUG 2 01 Apr 21:30:58 21:34:41 34° 72° (ENE) 21:38:29 437.445
HUMSAT D 01 Apr 21:41:49 21:44:04 15° 67° (ENE) 21:46:29 437.325/437.525
SEEDS 01 Apr 21:42:30 21:46:29 41° 262° (W) 21:50:31 437.485
CINEMA 3 01 Apr 21:43:07 21:47:18 87° 257° (WSW) 21:51:29 145.822/145.860
50 SAT 01 Apr 21:47:32 21:47:52 10° 65° (ENE) 21:48:26 437.505
UKube-1 01 Apr 21:54:06 21:57:55 32° 70° (ENE) 22:01:47 .
COMPASS 1 01 Apr 21:59:34 22:03:21 32° 264° (W) 22:07:08 437.405
ISS 01 Apr 22:01:57 22:05:12 82° 322° (NW) 22:08:28 145.825
HO-68 01 Apr 22:08:23 22:14:38 31° 265° (W) 22:20:46 435.675
DX 1 01 Apr 22:08:52 22:13:04 49° 73° (ENE) 22:17:18 434.975-435.025
PCSat 01 Apr 22:15:00 22:18:33 18° 44° (NE) 22:22:14 145.827
ESTCUBE 1 01 Apr 22:17:57 22:20:16 14° 65° (ENE) 22:22:47 437.505/2401.250
DELFI C3 01 Apr 22:21:00 22:25:01 59° 259° (W) 22:29:06 145.870
Oscar 11 01 Apr 22:21:57 22:26:06 45° 261° (W) 22:30:17 145.826/435.025
RS-15 01 Apr 22:24:23 22:32:41 23° 339° (NNW) 22:40:57 29.354- 29.394
ANTELSAT 01 Apr 22:26:41 22:28:18 12° 89° (E) 22:30:14 437.575/2403.000
DOVE 4 01 Apr 22:33:50 22:35:43 12° 270° (W) 22:37:22 437.250
FUNcube-1 01 Apr 22:39:59 22:44:03 56° 260° (W) 22:48:10 145.935
CUBEBUG 1 01 Apr 22:53:24 22:57:09 28° 70° (ENE) 23:00:57 437.445
ZACube-1 01 Apr 22:54:38 22:58:29 37° 263° (W) 23:02:22 437.345
UWE-3 01 Apr 22:54:43 22:58:24 30° 264° (W) 23:02:03 435.000/436.395/437.385
YUBILEINY 01 Apr 22:57:12 23:00:10 12° 55° (NE) 23:03:51 435.215
VELOX 1 01 Apr 23:03:38 23:08:05 84° 77° (ENE) 23:12:32 145.980
CUBEBUG 2 01 Apr 23:08:41 23:11:34 18° 268° (W) 23:14:19 437.445
AISAT 01 Apr 23:10:00 23:14:27 80° 257° (WSW) 23:18:53 437.250
DUCHIFAT 1 01 Apr 23:14:07 23:16:55 18° 92° (E) 23:19:53 145.980
QB50P1 01 Apr 23:14:25 23:17:20 18° 93° (E) 23:20:22 145.935-145.965
HUMSAT D 01 Apr 23:15:37 23:19:31 43° 262° (W) 23:23:28 437.325/437.525
50 SAT 01 Apr 23:18:28 23:22:19 60° 260° (W) 23:26:14 437.505
UNISAT 6 01 Apr 23:20:18 23:24:45 46° 99° (E) 23:29:16 437.425
TIGRISAT 01 Apr 23:28:41 23:33:13 55° 99° (E) 23:37:49 435.000
QB50P2 01 Apr 23:30:02 23:33:42 28° 96° (E) 23:37:24 145.880/145.840
UKube-1 01 Apr 23:30:45 23:34:09 21° 266° (W) 23:37:25 .
BUGSAT 1 01 Apr 23:37:19 23:40:29 22° 94° (E) 23:43:42 437.445
ISS 01 Apr 23:39:51 23:42:02 16° 341° (NNW) 23:44:11 145.825
DX 1 01 Apr 23:47:17 23:49:40 14° 269° (W) 23:51:50 434.975-435.025
ESTCUBE 1 01 Apr 23:52:14 23:56:43 57° 259° (W) 00:01:14 437.505/2401.250
PCSat 01 Apr 23:57:13 00:02:39 76° 244° (WSW) 00:08:03 145.827
POPSAT HIP 1 01 Apr 23:57:33 00:01:45 58° 101° (E) 00:05:55 437.405
TISAT 1 01 Apr 23:59:21 00:03:03 31° 71° (ENE) 00:06:49 437.305
ANTELSAT 02 Apr 00:00:59 00:05:36 65° 285° (WNW) 00:10:14 437.575/2403.000
NANOSAT C BR1 02 Apr 00:06:30 00:10:45 74° 102° (ESE) 00:14:59 145.865
POLYITAN 1 02 Apr 00:14:14 00:18:30 87° 284° (WNW) 00:22:46 437.675
SPROUT 02 Apr 00:23:08 00:27:24 71° 76° (ENE) 00:31:41 437.525
CUBEBUG 1 02 Apr 00:29:53 00:33:32 24° 266° (W) 00:37:05 437.445
RS-15 02 Apr 00:43:05 00:50:42 20° 14° (NNE) 00:58:44 29.354- 29.394
DUCHIFAT 1 02 Apr 00:49:02 00:52:55 36° 288° (WNW) 00:56:46 145.980
QB50P1 02 Apr 00:49:29 00:53:21 35° 288° (WNW) 00:57:11 145.935-145.965
YUBILEINY 02 Apr 00:50:25 00:59:13 67° 79° (E) 01:07:55 435.215
SWISSCUBE 02 Apr 00:54:40 00:58:28 24° 68° (ENE) 01:02:22 437.505
BEESAT 02 Apr 00:57:00 01:00:45 24° 67° (ENE) 01:04:35 436.000
UNISAT 6 02 Apr 00:58:04 01:01:14 18° 293° (WNW) 01:04:17 437.425
QB50P2 02 Apr 01:06:05 01:09:30 23° 291° (WNW) 01:12:49 145.880/145.840
TIGRISAT 02 Apr 01:06:51 01:09:36 15° 294° (WNW) 01:12:10 435.000
BUGSAT 1 02 Apr 01:12:34 01:15:58 26° 290° (WNW) 01:19:18 437.445
POPSAT HIP 1 02 Apr 01:35:22 01:37:12 12° 295° (WNW) 01:38:51 437.405
TISAT 1 02 Apr 01:35:45 01:38:56 20° 267° (W) 01:42:01 437.305
KKS-1 02 Apr 01:42:14 01:43:43 12° 64° (ENE) 01:45:27 437.445
ITUPSAT 1 02 Apr 01:45:09 01:49:57 71° 75° (ENE) 01:54:46 437.325
SO-50 02 Apr 01:47:21 01:50:08 15° 39° (NE) 01:53:05 436.795
Oscar 19 02 Apr 01:53:06 01:57:36 30° 95° (E) 02:02:11 437.125/150
STARS 02 Apr 02:04:36 02:06:30 13° 65° (ENE) 02:08:36 437.465
SWISSCUBE 02 Apr 02:31:47 02:36:11 35° 263° (W) 02:40:34 437.505
BEESAT 02 Apr 02:34:00 02:38:25 36° 263° (W) 02:42:50 436.000
Gurwin Techsat 1B 02 Apr 02:39:56 02:43:55 22° 92° (E) 02:48:03 435.225
YUBILEINY 02 Apr 02:48:32 02:55:23 25° 277° (W) 03:01:50 435.215
ISS 02 Apr 02:54:40 02:56:55 17° 21° (NNE) 02:59:12 145.825
RS-15 02 Apr 02:56:13 03:07:05 47° 45° (NE) 03:18:31 29.354- 29.394
O/OREOS (USA 219) 02 Apr 03:02:36 03:06:25 27° 104° (ESE) 03:10:20 437.305
ITAMSAT 1 02 Apr 03:06:57 03:11:56 48° 99° (E) 03:16:56 435.822/435.867
KKS-1 02 Apr 03:15:28 03:19:53 67° 259° (WSW) 03:24:18 437.445
SO-50 02 Apr 03:26:28 03:31:27 90° 322° (NW) 03:36:22 436.795
ITUPSAT 1 02 Apr 03:26:44 03:28:27 11° 272° (W) 03:29:51 437.325
Oscar 19 02 Apr 03:32:23 03:36:57 31° 291° (WNW) 03:41:27 437.125/150
STARS 02 Apr 03:38:13 03:42:32 58° 259° (W) 03:46:52 437.465
MOZHAYETS 4 02 Apr 03:44:26 03:46:48 14° 65° (ENE) 03:49:22
PHONESAT 2.4 02 Apr 03:45:28 03:46:55 12° 146° (SE) 03:48:27 2401.200-2431.200
HORYU 2 02 Apr 03:46:01 03:49:16 20° 93° (E) 03:52:37 437.375
AIST 1 02 Apr 04:07:22 04:11:46 76° 95° (E) 04:16:10
VERMONT LUNAR 02 Apr 04:07:26 04:10:32 36° 156° (SSE) 04:13:38 437.305
Gurwin Techsat 1B 02 Apr 04:19:06 04:24:09 44° 289° (WNW) 04:29:09 435.225
AUBIESAT-1 02 Apr 04:28:57 04:31:45 18° 60° (ENE) 04:34:49 437.475
ISS 02 Apr 04:30:27 04:33:42 84° 215° (SW) 04:36:54 145.825
AO-7 02 Apr 04:35:57 04:43:39 42° 99° (E) 04:51:26 29.400- 29.500
O/OREOS (USA 219) 02 Apr 04:41:47 04:45:48 28° 300° (WNW) 04:49:47 437.305
ITAMSAT 1 02 Apr 04:47:18 04:51:09 21° 295° (WNW) 04:54:50 435.822/435.867
JAS-2 02 Apr 04:50:32 04:57:54 51° 97° (E) 05:04:36 435.910
M-CUBED/EXP-1 PRIME 02 Apr 04:55:43 04:59:31 37° 66° (ENE) 05:03:40 437.505
RS-15 02 Apr 05:08:42 05:19:54 56° 247° (WSW) 05:31:26 29.354- 29.394
GONETS M04 02 Apr 05:09:34 05:15:42 21° 63° (ENE) 05:22:14
MOZHAYETS 4 02 Apr 05:19:01 05:23:35 59° 260° (W) 05:28:12
PHONESAT 2.4 02 Apr 05:21:21 05:24:47 50° 159° (SSE) 05:28:13 2401.200-2431.200
HORYU 2 02 Apr 05:21:54 05:26:04 37° 289° (WNW) 05:30:11 437.375
CUBESAT XI-V 02 Apr 05:41:51 05:45:05 19° 67° (ENE) 05:48:28 437.345
VERMONT LUNAR 02 Apr 05:44:44 05:48:05 82° 349° (N) 05:51:26 437.305
CUTE-I 02 Apr 06:00:33 06:01:51 11° 87° (E) 06:03:33 437.470
Cubesat XI-IV 02 Apr 06:01:39 06:03:19 12° 87° (E) 06:05:21 437.490
AUBIESAT-1 02 Apr 06:02:16 06:06:12 44° 257° (WSW) 06:10:29 437.475
PRISM 02 Apr 06:22:45 06:26:39 38° 72° (ENE) 06:30:36 437.425
STRAND 1 02 Apr 06:27:50 06:32:23 33° 69° (ENE) 06:36:59 437.568
AO-7 02 Apr 06:28:47 06:36:31 44° 296° (WNW) 06:44:07 29.400- 29.500
M-CUBED/EXP-1 PRIME 02 Apr 06:31:34 06:34:37 19° 264° (W) 06:37:43 437.505
JAS-2 02 Apr 06:35:58 06:42:37 33° 296° (WNW) 06:48:40 435.910
CUSAT 1 02 Apr 06:50:34 06:54:21 23° 75° (ENE) 06:59:08 437.405
PHONESAT 2.4 02 Apr 06:59:32 07:03:04 76° 355° (N) 07:06:36 2401.200-2431.200
GONETS M04 02 Apr 07:04:53 07:13:46 81° 265° (W) 07:22:35
CUBESAT XI-V 02 Apr 07:17:47 07:22:16 43° 262° (W) 07:26:44 437.345
VERMONT LUNAR 02 Apr 07:22:30 07:25:50 83° 5° (N) 07:29:12 437.305
CUTE-I 02 Apr 07:37:22 07:42:43 82° 285° (WNW) 07:48:01 437.470
Cubesat XI-IV 02 Apr 07:38:49 07:44:10 79° 286° (WNW) 07:49:29 437.490
PRISM 02 Apr 07:59:31 08:02:20 17° 268° (W) 08:05:00 437.425
DANDE 02 Apr 08:04:43 08:09:12 85° 78° (ENE) 08:15:21 436.750
STRAND 1 02 Apr 08:07:10 08:11:37 28° 265° (W) 08:15:59 437.568
CUSAT 1 02 Apr 08:32:31 08:37:07 41° 263° (W) 08:43:02 437.405
PHONESAT 2.4 02 Apr 08:37:57 08:41:29 84° 193° (SSW) 08:45:01 2401.200-2431.200
BEESAT 3 02 Apr 08:51:04 08:54:16 23° 113° (ESE) 08:57:34 437.485
CANX-2 02 Apr 08:52:22 08:55:16 18° 92° (E) 08:58:19 2200.000
DOVE 4 02 Apr 08:54:01 08:56:26 15° 91° (E) 08:59:08 437.250
BRITE-PL 02 Apr 08:58:47 09:02:46 37° 98° (E) 09:06:59 437.365/2234.400
VERMONT LUNAR 02 Apr 09:00:19 09:03:23 34° 205° (SSW) 09:06:27 437.305
GONETS M04 02 Apr 09:04:50 09:09:23 14° 282° (WNW) 09:13:19
CUTE 1.7 + AOD 2 02 Apr 09:05:17 09:08:41 23° 94° (E) 09:12:08 437.475
AAUSAT CUBESAT 2 02 Apr 09:14:09 09:16:46 16° 91° (E) 09:19:31 437.432
CUTE-I 02 Apr 09:20:44 09:22:03 11° 300° (WNW) 09:23:03 437.470
Cubesat XI-IV 02 Apr 09:22:40 09:23:30 10° 301° (WNW) 09:24:01 437.490
GOMX 1 02 Apr 09:23:54 09:28:06 46° 99° (E) 09:32:35 467.674
SEEDS 02 Apr 09:27:51 09:31:44 33° 96° (E) 09:35:38 437.485
HO-68 02 Apr 09:35:42 09:42:45 55° 101° (E) 09:49:47 435.675
CINEMA 3 02 Apr 09:38:52 09:42:28 24° 94° (E) 09:46:17 145.822/145.860
COMPASS 1 02 Apr 09:43:42 09:47:44 41° 98° (E) 09:51:46 437.405
AIST 2 02 Apr 09:55:06 09:58:53 32° 115° (ESE) 10:02:46 435.215
BEESAT 2 02 Apr 09:55:56 10:00:03 80° 300° (WNW) 10:04:14 435.950
DELFI C3 02 Apr 10:02:27 10:05:26 20° 93° (E) 10:08:29 145.870
DUCHIFAT 1 02 Apr 10:07:09 10:08:56 13° 66° (ENE) 10:10:54 145.980
QB50P1 02 Apr 10:07:40 10:09:37 13° 66° (ENE) 10:11:45 145.935-145.965
Oscar 11 02 Apr 10:10:16 10:14:12 33° 96° (E) 10:18:10 145.826/435.025
PHONESAT 2.4 02 Apr 10:16:35 10:19:34 26° 208° (SSW) 10:22:33 2401.200-2431.200
UNISAT 6 02 Apr 10:18:53 10:22:45 34° 71° (ENE) 10:26:43 437.425
QB50P2 02 Apr 10:22:51 10:25:53 20° 68° (ENE) 10:29:02 145.880/145.840
TIGRISAT 02 Apr 10:26:56 10:30:56 41° 72° (ENE) 10:35:02 435.000
CANX-2 02 Apr 10:27:23 10:31:23 37° 288° (WNW) 10:35:20 2200.000
BUGSAT 1 02 Apr 10:27:37 10:29:59 15° 67° (ENE) 10:32:29 437.445
BEESAT 3 02 Apr 10:28:28 10:32:11 31° 309° (NW) 10:35:54 437.485
FUNcube-1 02 Apr 10:29:18 10:33:07 28° 95° (E) 10:37:03 145.935
DOVE 4 02 Apr 10:30:13 10:34:30 49° 286° (WNW) 10:39:00 437.250
BRITE-PL 02 Apr 10:38:08 10:41:09 18° 291° (WNW) 10:44:09 437.365/2234.400
CUTE 1.7 + AOD 2 02 Apr 10:40:51 10:44:38 29° 289° (WNW) 10:48:20 437.475
ZACube-1 02 Apr 10:43:35 10:47:48 41° 98° (E) 10:52:06 437.345
UWE-3 02 Apr 10:44:31 10:48:55 53° 100° (E) 10:53:25 435.000/436.395/437.385
AAUSAT CUBESAT 2 02 Apr 10:48:38 10:52:37 39° 287° (WNW) 10:56:32 437.432
POPSAT HIP 1 02 Apr 10:49:40 10:53:33 38° 72° (ENE) 10:57:29 437.405
VELOX 1 02 Apr 10:56:22 10:59:10 17° 92° (E) 11:02:05 145.980
50 SAT 02 Apr 10:58:00 11:00:42 18° 92° (E) 11:03:33 437.505
NANOSAT C BR1 02 Apr 10:58:15 11:02:17 48° 73° (ENE) 11:06:21 145.865
CUBEBUG 2 02 Apr 10:58:32 11:03:03 87° 283° (WNW) 11:07:41 437.445
ANTELSAT 02 Apr 10:59:13 11:03:29 81° 257° (WSW) 11:07:52 437.575/2403.000
HUMSAT D 02 Apr 11:00:39 11:04:26 31° 96° (E) 11:08:18 437.325/437.525
AISAT 02 Apr 11:02:36 11:05:51 20° 93° (E) 11:09:12 437.250
GOMX 1 02 Apr 11:03:15 11:06:01 16° 292° (WNW) 11:08:42 467.674
SEEDS 02 Apr 11:04:10 11:07:21 20° 292° (WNW) 11:10:26 437.485
POLYITAN 1 02 Apr 11:06:21 11:10:30 62° 75° (ENE) 11:14:40 437.675
CINEMA 3 02 Apr 11:15:42 11:19:43 32° 288° (WNW) 11:23:50 145.822/145.860
UKube-1 02 Apr 11:18:02 11:22:21 66° 102° (ESE) 11:26:38 .
COMPASS 1 02 Apr 11:20:23 11:23:08 17° 293° (WNW) 11:25:44 437.405
HO-68 02 Apr 11:24:07 11:30:08 29° 298° (WNW) 11:35:59 435.675
AIST 2 02 Apr 11:33:56 11:37:32 25° 312° (NW) 11:41:07 435.215
DX 1 02 Apr 11:34:05 11:38:25 76° 285° (WNW) 11:42:44 434.975-435.025
DELFI C3 02 Apr 11:37:02 11:40:40 30° 289° (WNW) 11:44:13 145.870
BEESAT 2 02 Apr 11:38:00 11:38:58 11° 321° (NW) 11:39:46 435.950
DUCHIFAT 1 02 Apr 11:40:15 11:44:22 54° 260° (W) 11:48:30 145.980
QB50P1 02 Apr 11:41:00 11:45:06 52° 260° (W) 11:49:14 145.935-145.965
ESTCUBE 1 02 Apr 11:46:13 11:50:12 31° 96° (E) 11:54:14 437.505/2401.250
Oscar 11 02 Apr 11:46:52 11:50:13 21° 292° (WNW) 11:53:27 145.826/435.025
UNISAT 6 02 Apr 11:56:35 11:59:42 19° 268° (W) 12:02:44 437.425
QB50P2 02 Apr 11:57:48 12:01:36 32° 263° (W) 12:05:25 145.880/145.840
YUBILEINY 02 Apr 11:59:05 12:02:44 14° 78° (ENE) 12:07:04 435.215
BUGSAT 1 02 Apr 12:01:14 12:05:11 42° 261° (W) 12:09:05 437.445
TIGRISAT 02 Apr 12:05:17 12:07:58 16° 269° (W) 12:10:31 435.000
FUNcube-1 02 Apr 12:05:41 12:09:23 26° 290° (WNW) 12:13:03 145.935
SPROUT 02 Apr 12:12:31 12:14:30 13° 90° (E) 12:16:42 437.525
CUBEBUG 1 02 Apr 12:18:46 12:23:04 64° 101° (E) 12:27:21 437.445
ZACube-1 02 Apr 12:20:49 12:23:54 18° 292° (WNW) 12:26:54 437.345
UWE-3 02 Apr 12:22:31 12:25:06 15° 293° (WNW) 12:27:32 435.000/436.395/437.385
POPSAT HIP 1 02 Apr 12:26:52 12:29:38 17° 268° (W) 12:32:16 437.405
VELOX 1 02 Apr 12:31:48 12:35:58 41° 288° (WNW) 12:40:05 145.980
50 SAT 02 Apr 12:32:03 12:35:44 33° 288° (WNW) 12:39:22 437.505
NANOSAT C BR1 02 Apr 12:36:22 12:38:29 13° 270° (W) 12:40:23 145.865
HUMSAT D 02 Apr 12:36:43 12:40:04 22° 291° (WNW) 12:43:20 437.325/437.525
AISAT 02 Apr 12:38:33 12:42:34 34° 289° (WNW) 12:46:31 437.250
POLYITAN 1 02 Apr 12:46:22 12:46:55 10° 272° (W) 12:47:12 437.675
UKube-1 02 Apr 12:56:31 12:58:01 11° 296° (WNW) 12:59:17 .
PCSat 02 Apr 12:57:16 13:00:12 15° 105° (ESE) 13:03:25 145.827
Oscar 19 02 Apr 13:09:03 13:13:46 40° 71° (ENE) 13:18:34 437.125/150
O/OREOS (USA 219) 02 Apr 13:12:52 13:17:13 44° 64° (ENE) 13:21:32 437.305
TISAT 1 02 Apr 13:19:59 13:24:10 66° 101° (E) 13:28:20 437.305
ESTCUBE 1 02 Apr 13:23:20 13:26:58 24° 292° (WNW) 13:30:29 437.505/2401.250
SPROUT 02 Apr 13:46:47 13:50:56 49° 286° (WNW) 13:55:04 437.525
ITUPSAT 1 02 Apr 13:47:45 13:51:08 20° 92° (E) 13:54:39 437.325
AO-7 02 Apr 13:48:38 13:50:35 11° 46° (NE) 13:53:05 29.400- 29.500
YUBILEINY 02 Apr 13:49:31 13:58:18 79° 95° (E) 14:07:10 435.215
CUBEBUG 1 02 Apr 13:57:23 13:58:58 12° 296° (WNW) 14:00:20 437.445
Gurwin Techsat 1B 02 Apr 13:59:59 14:04:37 32° 69° (ENE) 14:09:21 435.225
AIST 1 02 Apr 14:16:44 14:19:27 17° 71° (ENE) 14:22:19
ITAMSAT 1 02 Apr 14:23:55 14:29:04 67° 74° (ENE) 14:34:16 435.822/435.867
JUGNU 02 Apr 14:31:02 14:32:12 11° 181° (S) 14:33:21 437.505
SWISSCUBE 02 Apr 14:32:34 14:37:20 64° 101° (ESE) 14:42:03 437.505
BEESAT 02 Apr 14:34:44 14:39:29 62° 101° (E) 14:44:12 436.000
PCSat 02 Apr 14:37:43 14:43:06 68° 300° (WNW) 14:48:32 145.827
HORYU 2 02 Apr 14:44:12 14:47:01 17° 66° (ENE) 14:50:00 437.375
Oscar 19 02 Apr 14:49:15 14:53:19 23° 267° (W) 14:57:17 437.125/150
O/OREOS (USA 219) 02 Apr 14:53:24 14:56:18 16° 259° (W) 14:59:00 437.305
TISAT 1 02 Apr 14:58:22 14:59:29 11° 296° (WNW) 15:00:22 437.305
JAS-2 02 Apr 15:01:48 15:07:05 23° 60° (ENE) 15:12:55 435.910
KKS-1 02 Apr 15:08:02 15:11:40 25° 95° (E) 15:15:21 437.445
ITUPSAT 1 02 Apr 15:24:44 15:29:16 41° 289° (WNW) 15:33:43 437.325
STARS 02 Apr 15:29:18 15:33:00 26° 95° (E) 15:36:46 437.465
AO-7 02 Apr 15:33:47 15:41:43 53° 66° (ENE) 15:49:42 29.400- 29.500
SRMSAT 02 Apr 15:38:52 15:40:01 11° 178° (S) 15:41:10 437.500
Gurwin Techsat 1B 02 Apr 15:39:55 15:44:36 31° 265° (W) 15:49:15 435.225
YUBILEINY 02 Apr 15:49:42 15:56:18 22° 297° (WNW) 16:02:34 435.215
AIST 1 02 Apr 15:53:22 15:57:20 36° 268° (W) 16:01:14
ITAMSAT 1 02 Apr 16:06:22 16:09:09 14° 271° (W) 16:11:39 435.822/435.867
SWISSCUBE 02 Apr 16:12:10 16:14:43 14° 296° (WNW) 16:17:03 437.505
BEESAT 02 Apr 16:14:12 16:16:52 14° 296° (WNW) 16:19:19 436.000
HORYU 2 02 Apr 16:19:08 16:23:23 43° 262° (W) 16:27:38 437.375
PCSat 02 Apr 16:25:27 16:27:40 12° 322° (NW) 16:29:40 145.827
JAS-2 02 Apr 16:44:18 16:51:20 75° 258° (WSW) 16:59:07 435.910
KKS-1 02 Apr 16:44:27 16:48:18 29° 290° (WNW) 16:52:06 437.445
STARS 02 Apr 17:05:42 17:09:26 26° 291° (WNW) 17:13:05 437.465
BEESAT 3 02 Apr 17:11:16 17:13:24 14° 42° (NE) 17:15:38 437.485
MOZHAYETS 4 02 Apr 17:15:19 17:19:33 35° 96° (E) 17:23:48
CUTE-I 02 Apr 17:20:26 17:24:04 19° 64° (ENE) 17:27:51 437.470
RS-15 02 Apr 17:21:33 17:29:43 27° 105° (ESE) 17:38:24 29.354- 29.394
Cubesat XI-IV 02 Apr 17:21:54 17:25:38 20° 65° (ENE) 17:29:33 437.490
AO-7 02 Apr 17:27:26 17:34:50 34° 264° (W) 17:42:04 29.400- 29.500
SO-50 02 Apr 17:40:20 17:44:30 36° 115° (ESE) 17:48:52 436.795
AUBIESAT-1 02 Apr 17:45:23 17:48:24 17° 95° (E) 17:51:32 437.475
